This is the latest recevied weather packets stored in our database for station/object DC0VZ-6. If no packets are shown the sender has not sent any weather packets the latest 10 day(s).
| Time | Temp. | Humidity | Pressure | Rain* | Wind** | Luminosity | Snow |
|---|---|---|---|---|---|---|---|
| 1777455374 | 19.44° C | 5% | 990.1 hPa | 0 mm | - | - | - |
| 1777454774 | 18.89° C | 5% | 990.1 hPa | 0 mm | - | - | - |
| 1777454174 | 18.33° C | 5% | 989.8 hPa | 0 mm | - | - | - |
| 1777453574 | 18.33° C | 5% | 989.8 hPa | 0 mm | - | - | - |
| 1777452974 | 19.44° C | 5% | 990 hPa | 0 mm | - | - | - |
| 1777452374 | 18.33° C | 12% | 990 hPa | 0 mm | - | - | - |
| 1777451774 | 17.22° C | 12% | 990.1 hPa | 0 mm | - | - | - |
| 1777451174 | 16.67° C | 12% | 990.1 hPa | 0 mm | - | - | - |
| 1777450574 | 17.22° C | 12% | 990 hPa | 0 mm | - | - | - |
| 1777449974 | 16.11° C | 12% | 990 hPa | 0 mm | - | - | - |
| 1777449373 | 16.11° C | 12% | 989.7 hPa | 0 mm | - | - | - |
| 1777448773 | 14.44° C | 12% | 989.7 hPa | 0 mm | - | - | - |
| 1777448173 | 14.44° C | 13% | 989.5 hPa | 0 mm | - | - | - |
| 1777447573 | 13.89° C | 13% | 989.5 hPa | 0 mm | - | - | - |
| 1777446973 | 13.33° C | 13% | 989.1 hPa | 0 mm | - | - | - |
| 1777446373 | 12.78° C | 13% | 989.1 hPa | 0 mm | - | - | - |
| 1777445773 | 12.22° C | 20% | 988.9 hPa | 0 mm | - | - | - |
| 1777445173 | 12.22° C | 20% | 988.9 hPa | 0 mm | - | - | - |
| 1777444573 | 11.67° C | 20% | 989 hPa | 0 mm | - | - | - |
| 1777443973 | 11.11° C | 20% | 989 hPa | 0 mm | - | - | - |
| 1777443373 | 10.56° C | 20% | 988.6 hPa | 0 mm | - | - | - |
| 1777442772 | 10.56° C | 15% | 988.6 hPa | 0 mm | - | - | - |
| 1777442172 | 10° C | 15% | 988.6 hPa | 0 mm | - | - | - |
| 1777441572 | 10° C | 16% | 988.6 hPa | 0 mm | - | - | - |
| 1777440973 | 9.44° C | 16% | 988.2 hPa | 0 mm | - | - | - |
* Rain latest hour (hover to see other rain measurements)
** Current wind speed in m/s (hover to see current wind gust speed)